Wind_Speed
22 22 22 20 17 14 14 14 15 15 15 16 18 19 18 17 17 17 18 18 18 17 15 12 9 8 8 7 8 8 7 7 9 11 12 10 6 3 1 2 3 3 4 4 5 6 6 3 0 3 4 3 7 8 9 12 11 8 4 5 8 6 6 5 6 6 4 5 6 12 18 13 7 11 13 10 11 13 15 16 14 15 14 14 15 14 23 32
22 22 22 19 16 14 14 14 15 15 15 16 18 18 17 17 17 17 18 18 18 16 13 11 8 7 7 7 8 7 6 6 9 11 12 11 8 4 2 4 4 4 4 5 6 7 6 4 2 6 7 1 4 6 7 10 12 8 1 3 8 4 4 5 7 7 5 5 7 13 18 15 11 10 11 7 8 11 10 11 13 16 15 13 15 16 26 33
23 23 22 18 16 14 14 14 15 15 15 17 17 17 16 16 17 17 18 18 17 15 13 10 8 6 7 7 8 7 5 5 7 9 10 11 9 6 5 5 6 6 6 6 6 6 6 5 5 8 8 3 4 7 7 7 8 8 4 3 6 3 2 5 6 8 8 7 5 7 11 11 11 11 11 8 9 11 9 9 11 14 17 17 17 20 29 35
23 22 22 18 15 14 14 15 15 15 15 16 16 15 15 16 16 17 17 17 17 16 13 11 9 7 7 7 8 6 4 4 6 7 8 9 8 7 8 7 7 6 5 5 5 6 7 7 7 8 6 3 3 6 6 6 5 5 6 5 5 2 2 7 9 10 8 7 5 5 7 6 7 9 10 8 7 6 9 17 17 17 22 25 22 25 34 38
22 22 21 18 15 14 14 14 15 15 15 15 15 14 14 15 16 17 17 17 16 15 13 12 10 8 8 8 7 6 4 3 3 6 7 8 7 7 9 9 7 5 4 5 5 8 9 8 7 7 3 2 1 3 4 10 8 3 5 7 7 4 2 6 11 14 13 9 6 5 5 4 4 7 12 12 7 6 11 19 22 21 21 25 26 29 37 41
22 21 21 18 15 14 14 15 15 14 15 15 14 12 13 14 16 17 17 17 15 14 13 12 10 9 8 8 6 6 4 2 2 4 5 7 6 7 11 10 6 3 4 4 6 9 9 8 7 6 2 1 1 2 4 11 12 5 5 5 7 7 6 8 11 14 16 11 6 6 5 5 5 5 10 13 12 15 15 14 21 25 24 27 29 33 39 43
22 21 20 17 14 14 14 15 15 15 14 13 12 11 11 13 15 16 17 16 14 14 13 12 11 9 8 7 6 4 4 3 4 5 4 5 5 7 9 10 7 4 3 4 7 9 7 8 8 6 2 2 1 3 6 7 10 7 4 3 5 8 9 12 13 13 13 11 9 7 5 6 7 4 5 10 15 18 12 7 13 21 25 29 31 36 41 45
22 22 20 17 14 14 14 16 16 14 13 12 11 10 9 11 13 15 16 15 14 13 13 13 12 10 8 8 8 5 4 4 6 5 4 4 4 6 7 8 8 5 5 4 6 8 6 7 9 5 2 1 2 3 5 6 4 6 4 4 6 12 14 16 17 16 14 12 13 11 8 8 9 6 6 10 14 17 14 12 13 13 18 24 31 38 43 47
22 22 20 17 14 14 15 16 15 13 12 11 11 10 8 10 11 13 14 13 13 12 12 13 12 11 9 9 8 5 5 6 8 6 5 5 5 6 6 6 6 5 5 4 6 7 5 6 7 6 3 2 2 4 5 4 2 3 4 6 5 11 16 17 18 18 16 11 10 9 7 9 9 7 8 13 16 19 21 21 18 16 18 21 31 39 44 48
23 22 19 16 13 14 15 14 12 11 11 11 11 10 9 9 10 11 12 12 11 11 12 12 13 12 10 10 7 5 6 8 8 7 5 5 5 4 4 4 5 6 5 6 7 7 6 6 8 8 5 3 2 5 4 1 2 5 7 8 9 13 15 16 16 20 18 11 11 8 5 12 13 6 5 9 11 13 17 18 17 19 22 24 31 39 43 44
23 21 18 15 13 13 12 11 11 11 11 12 11 11 10 10 9 10 11 10 9 10 11 12 13 12 10 9 5 4 7 8 8 8 7 4 4 5 5 4 6 7 7 9 9 8 7 6 8 8 3 3 6 8 5 2 7 12 8 7 11 12 13 14 13 17 15 8 11 9 5 13 13 8 10 10 8 8 10 12 13 18 23 27 32 39 42 41
22 20 17 14 13 12 10 9 10 11 11 12 12 12 12 11 9 9 10 10 10 11 11 12 13 12 11 7 4 5 8 9 8 7 7 6 5 4 4 3 6 7 8 10 9 7 7 6 7 7 4 4 5 4 5 8 11 12 4 3 8 4 6 12 11 14 12 5 8 6 3 8 10 12 12 11 11 13 15 14 14 19 23 28 33 38 38 37
22 20 16 14 13 10 8 9 10 11 10 12 14 14 13 11 9 8 9 9 10 12 11 12 13 12 10 6 5 7 9 9 7 6 5 6 4 4 5 5 6 7 7 9 8 6 6 7 7 7 8 5 3 3 8 12 10 9 2 1 5 5 3 10 11 14 12 8 10 7 3 7 13 12 5 5 9 13 16 17 19 23 25 29 34 37 35 35
22 19 15 13 12 8 7 9 10 10 11 13 16 16 13 11 9 8 8 8 10 12 12 12 12 12 9 5 7 9 10 9 7 6 6 7 7 7 6 5 6 6 6 7 8 7 6 7 7 8 9 7 5 6 9 8 3 4 2 1 1 2 4 6 7 11 9 10 15 10 4 9 12 6 3 7 10 11 13 17 22 26 27 30 32 34 35 36
21 18 15 13 11 8 7 9 11 12 13 15 17 17 13 9 8 7 7 7 9 11 11 11 11 12 8 3 7 10 11 12 10 8 7 9 10 10 7 5 6 6 6 8 10 9 6 7 8 7 6 7 5 4 4 4 3 2 1 4 2 2 5 7 5 12 11 8 14 13 5 8 10 5 7 9 10 14 16 18 22 26 28 30 31 32 35 36
21 18 15 13 11 8 7 9 12 14 15 18 18 16 11 6 5 6 5 8 9 10 10 9 10 9 5 4 8 12 14 15 14 11 7 9 10 10 10 9 8 7 7 10 12 8 5 5 6 5 4 4 1 3 3 4 4 3 1 3 3 2 3 5 4 9 13 8 10 13 6 3 6 9 13 12 10 13 12 15 21 26 28 29 31 32 33 33
21 18 15 13 11 8 9 10 13 16 17 19 18 12 8 4 2 4 5 8 9 11 9 7 11 7 1 7 12 15 16 14 14 14 9 7 8 10 11 11 10 9 9 11 9 5 4 2 2 3 1 1 2 4 2 2 3 3 1 1 3 2 2 2 4 2 6 6 8 13 9 4 4 8 12 12 15 15 11 14 20 25 28 30 32 33 32 33
21 18 14 13 12 9 9 10 14 17 17 20 17 9 6 3 2 2 5 8 9 8 5 7 12 4 1 10 13 14 17 13 11 14 11 6 9 10 9 10 10 10 10 8 5 3 2 1 1 0 3 3 2 4 2 4 4 3 1 1 3 3 2 3 4 1 1 4 9 10 7 7 5 8 12 9 15 18 15 18 22 26 29 30 32 33 33 34
22 18 14 13 12 9 9 10 14 16 17 20 15 6 4 3 2 2 4 8 7 4 2 8 10 2 4 13 14 13 15 12 10 14 12 7 8 8 7 8 8 8 8 5 5 5 0 1 3 2 3 4 2 4 6 7 4 4 3 2 2 3 4 5 5 5 2 2 7 6 5 6 5 9 12 9 13 16 15 16 19 24 28 30 32 33 34 35
22 18 14 13 11 9 8 10 13 15 16 20 14 3 5 8 3 3 7 6 5 5 5 9 9 5 9 14 13 14 15 12 12 13 12 9 7 6 6 9 6 7 7 2 4 5 3 3 2 4 5 7 7 7 7 5 3 3 2 2 3 3 5 7 5 6 3 2 5 4 7 6 7 9 9 7 12 13 12 12 14 19 23 27 29 30 33 37
22 18 14 12 11 8 7 9 11 13 14 18 16 9 9 11 4 5 11 6 4 8 9 9 8 6 11 11 10 16 17 13 13 13 11 9 7 5 6 8 5 5 5 3 2 3 4 4 3 6 7 8 8 7 5 4 3 2 3 3 4 3 5 8 5 4 2 3 3 2 7 6 8 9 5 5 8 9 13 14 14 19 22 23 25 26 29 33
22 17 14 12 10 7 6 7 9 11 11 14 16 14 12 10 5 6 9 5 5 9 10 11 9 8 13 9 9 18 15 8 11 14 11 9 7 5 5 6 4 2 5 3 3 4 4 2 6 8 7 5 4 5 5 4 4 2 2 2 3 3 4 7 6 4 1 3 2 1 5 6 7 7 4 6 7 9 19 22 20 24 24 22 24 25 26 27
21 16 14 12 9 7 7 7 8 9 9 12 15 14 11 8 6 5 6 5 6 9 11 12 10 9 13 11 10 18 13 4 8 13 12 9 7 6 4 3 3 2 4 4 3 3 2 3 7 7 6 5 3 1 2 2 2 2 3 3 3 3 1 3 5 5 4 1 0 2 3 4 5 4 4 7 8 8 16 22 22 25 28 27 28 29 28 27
20 15 13 13 10 7 7 7 8 9 8 9 11 11 10 8 5 3 4 3 3 7 11 11 12 10 13 15 13 15 10 4 7 11 13 10 7 6 2 1 3 2 3 2 2 2 3 7 7 5 5 5 5 4 4 3 3 2 3 3 3 4 2 4 3 5 4 3 3 5 2 4 4 2 4 4 4 5 8 13 16 20 26 30 32 33 33 33
20 14 12 13 11 8 7 5 7 8 6 6 7 8 8 7 5 3 4 1 2 8 11 10 11 10 13 16 14 12 6 3 9 12 12 10 7 5 2 1 2 1 5 3 0 2 5 6 5 4 5 6 6 4 3 3 3 4 2 4 5 5 4 4 4 4 4 4 2 4 2 4 5 2 5 4 2 4 4 5 11 19 24 27 31 33 33 34
20 13 10 13 12 9 6 4 5 6 4 4 6 6 6 5 5 3 3 3 1 7 9 10 9 9 13 15 14 9 2 6 10 11 12 10 7 5 2 2 1 1 4 3 1 1 3 3 2 3 4 5 5 3 2 3 5 4 2 4 3 2 3 4 3 4 3 2 3 3 3 3 6 3 5 4 2 4 5 5 7 15 20 24 28 31 31 33
21 13 10 11 12 10 6 3 5 4 3 4 6 5 4 6 5 2 2 4 3 5 6 9 8 9 12 12 14 6 1 10 10 8 14 10 6 4 2 3 1 2 2 1 3 1 3 5 5 4 4 5 5 2 2 3 5 2 3 1 2 3 2 2 3 4 1 2 3 5 3 2 3 4 3 2 1 3 5 6 7 9 16 22 27 29 30 33
21 13 9 10 12 11 8 4 4 4 4 5 6 5 5 6 3 0 4 3 4 4 3 6 6 11 13 10 16 10 1 10 7 8 16 9 6 6 2 3 2 5 2 3 2 4 2 2 3 4 5 3 0 2 4 2 2 5 4 1 2 1 1 2 5 3 1 2 3 6 3 2 3 5 3 2 3 3 7 7 7 9 10 14 19 24 27 30
18 12 8 9 11 10 8 6 5 5 7 7 7 8 7 4 3 1 5 2 3 4 3 6 7 11 16 10 15 15 7 8 6 11 16 11 7 4 2 3 1 3 2 3 3 4 3 4 3 2 1 2 4 5 4 3 1 4 1 3 4 4 4 4 5 2 3 4 1 5 4 1 3 5 4 2 4 2 6 6 6 9 10 9 12 17 22 26
14 10 9 9 9 9 7 6 7 7 8 9 10 9 4 1 1 4 4 1 2 4 4 7 6 8 13 7 8 14 8 7 12 15 16 14 14 12 2 4 4 2 3 3 1 5 7 5 2 3 2 5 4 3 1 1 3 2 4 3 4 6 4 3 3 3 4 3 4 5 1 3 1 5 3 0 1 2 2 1 5 7 7 5 6 8 13 20
11 9 10 8 8 8 8 7 8 9 10 10 11 7 1 1 4 5 2 2 2 4 5 5 5 6 8 4 4 9 5 5 13 13 11 10 15 17 9 4 6 5 3 5 4 6 8 4 0 2 3 2 1 1 3 4 3 3 4 3 2 3 4 4 4 3 3 2 5 3 1 3 1 4 3 3 5 3 3 3 3 6 8 7 5 4 4 8
9 9 9 8 7 7 7 8 9 10 11 11 9 4 2 2 4 2 2 3 2 3 3 2 4 5 5 4 4 7 4 4 9 8 5 5 5 8 7 3 3 4 3 4 4 6 5 2 3 4 2 4 4 2 4 6 5 5 4 4 3 2 3 2 3 2 1 3 2 3 3 1 3 6 4 4 5 6 3 1 3 6 9 11 9 8 7 6
7 9 9 8 8 7 7 8 10 10 11 10 6 2 5 4 2 2 3 3 1 2 1 1 4 4 4 4 4 6 3 2 6 6 3 3 3 3 4 4 3 2 1 2 2 4 4 4 7 5 3 5 4 3 3 4 4 4 3 3 2 2 3 1 3 1 1 3 2 4 3 1 3 5 4 5 6 6 7 6 5 6 9 11 10 9 10 9
4 7 9 9 9 8 7 8 9 9 9 8 3 4 7 4 1 2 2 2 2 2 2 1 4 5 4 3 2 4 3 2 5 6 4 3 4 3 4 5 6 3 1 2 2 2 2 3 4 2 3 5 3 2 1 1 1 1 3 4 2 3 3 2 2 1 2 2 3 4 1 2 2 3 4 5 6 6 9 8 3 4 7 8 10 11 12 11
4 4 7 9 10 9 9 8 8 9 7 5 6 6 5 1 3 1 2 3 1 3 3 2 3 4 4 3 3 2 3 2 4 5 4 3 2 2 4 4 5 4 2 2 2 0 2 4 6 3 5 3 4 2 2 4 2 2 2 4 1 2 3 2 2 3 2 1 2 2 2 3 4 5 4 1 1 1 4 4 2 4 5 7 9 11 11 12
4 2 5 8 10 10 10 9 8 8 6 6 8 4 2 3 2 3 3 1 1 1 3 4 4 3 4 4 3 4 1 1 3 4 3 3 1 1 3 2 2 4 3 1 1 1 2 4 6 5 4 3 3 3 1 2 0 1 2 1 2 3 5 4 1 1 4 2 2 2 2 4 4 6 5 5 5 4 3 3 4 4 3 4 7 9 10 11
3 1 3 7 9 10 10 9 8 7 6 7 6 1 2 2 3 4 2 0 0 1 4 3 2 2 3 3 3 5 3 1 3 3 2 3 2 1 2 3 2 3 1 1 1 1 0 4 5 4 3 6 5 3 2 3 2 2 1 2 2 1 3 4 2 3 4 1 3 2 2 4 2 3 6 8 6 3 2 1 3 6 4 2 5 8 9 11
3 3 2 8 9 9 9 9 8 6 5 6 4 1 1 1 3 3 1 1 1 3 5 2 1 1 1 2 3 5 3 3 3 3 2 2 2 1 2 1 3 4 2 1 1 1 1 3 5 2 2 8 7 5 3 5 4 3 2 2 2 2 1 1 2 0 1 1 3 3 3 3 2 4 6 8 6 6 5 2 1 3 4 6 7 9 10 11
3 4 2 9 9 9 8 7 7 5 6 5 1 1 1 1 3 2 1 1 2 3 3 2 1 1 1 1 2 3 3 2 2 2 1 1 2 3 1 0 2 6 7 1 2 2 0 0 4 4 2 5 5 4 1 5 6 3 2 2 2 3 2 1 1 2 1 1 2 3 3 3 4 5 4 6 7 6 7 6 3 2 2 6 9 11 12 13
1 3 2 8 10 9 7 6 6 6 5 2 2 2 1 2 2 1 0 0 1 2 0 2 2 1 3 2 2 2 1 1 0 1 1 0 2 4 2 1 2 6 9 4 1 1 1 1 3 5 4 3 2 1 2 1 2 3 4 4 3 2 1 0 1 1 2 2 1 1 3 5 5 4 5 7 8 6 6 6 6 5 6 7 11 14 15 17
2 1 2 8 10 6 6 7 6 4 3 1 1 1 1 0 1 2 1 1 1 2 2 3 3 1 1 1 2 1 1 1 0 0 1 1 1 2 2 2 2 4 6 4 2 1 1 1 1 4 4 3 3 4 4 4 2 2 1 2 1 1 2 2 1 2 1 1 2 1 3 6 5 3 4 4 3 4 6 6 6 11 13 13 15 18 20 21
3 2 3 8 7 2 6 5 3 2 2 1 1 2 2 2 1 2 1 1 1 1 1 2 2 2 2 1 1 1 1 1 1 1 1 2 2 2 4 7 6 4 2 1 2 2 1 2 0 3 3 5 8 6 1 4 3 4 3 2 2 2 3 4 1 2 2 1 1 2 1 6 5 2 1 2 3 7 12 11 12 18 22 21 21 22 23 25
5 2 3 7 4 3 5 3 3 3 1 2 3 2 2 2 0 1 2 1 1 1 1 0 1 1 1 2 1 0 1 1 1 1 1 2 2 3 7 10 9 4 0 0 2 1 1 2 1 3 3 4 6 5 4 3 4 5 3 3 3 2 2 3 3 2 0 1 0 1 2 6 5 2 2 2 10 16 17 18 19 24 30 30 29 30 30 31
6 3 5 8 4 1 3 1 1 2 3 3 4 3 2 1 1 2 2 1 1 1 1 1 1 2 2 1 1 2 2 0 1 2 1 1 2 6 9 9 7 2 1 1 2 1 1 1 1 2 3 3 4 4 4 4 4 3 2 3 3 3 2 1 1 2 1 2 3 2 4 5 4 4 6 10 14 14 17 22 23 24 29 33 33 33 33 33
5 2 4 9 6 5 5 3 2 2 2 3 4 3 3 2 2 3 1 2 1 2 2 1 1 2 1 2 1 2 1 1 1 1 1 1 3 5 6 8 7 2 2 4 3 1 0 1 0 1 1 1 2 2 1 2 3 1 1 3 3 3 3 2 1 2 0 1 2 3 5 9 7 5 9 11 11 13 19 24 24 24 26 31 32 34 35 34
4 2 3 6 8 10 9 6 5 2 1 2 2 2 2 2 4 4 1 2 1 0 2 1 0 1 1 3 3 3 2 1 2 1 1 2 2 3 6 9 8 5 6 4 1 1 2 1 2 3 3 3 4 4 1 2 2 2 1 3 3 2 3 2 1 1 0 2 3 5 8 15 14 7 8 11 12 14 16 19 22 23 26 30 33 36 37 37
3 1 2 3 4 5 6 7 9 4 1 2 2 0 2 2 4 4 2 1 1 2 1 1 1 1 1 2 2 2 3 2 2 2 2 3 2 4 8 8 4 5 7 4 2 1 2 1 2 4 5 6 6 6 3 2 2 2 3 3 3 3 3 2 1 1 0 1 4 4 5 13 17 13 14 16 15 13 14 18 24 27 29 33 36 38 40 40
3 1 1 2 2 0 2 5 8 5 1 1 2 1 2 2 3 2 2 3 3 2 1 1 3 1 2 1 2 1 3 3 2 2 2 2 2 3 6 4 2 5 7 4 3 2 2 1 2 3 4 6 6 6 6 3 1 2 3 3 4 5 4 2 2 3 2 3 6 7 8 13 17 17 17 16 15 15 18 24 29 33 35 37 38 39 41 41
4 2 1 2 1 2 1 5 6 3 2 1 2 2 2 1 2 2 2 3 4 2 2 1 5 5 2 3 3 0 2 2 3 4 2 2 3 2 3 2 2 6 7 4 3 2 2 1 2 3 5 6 5 4 3 2 2 4 3 3 4 5 5 5 5 6 6 8 10 11 14 16 16 15 15 16 20 23 26 30 33 34 36 37 37 38 40 42
4 2 1 1 0 1 3 5 3 3 3 3 2 2 1 1 2 3 2 1 1 3 2 1 7 8 2 5 4 2 3 2 3 5 2 2 3 1 1 1 2 5 6 3 2 3 2 2 5 4 4 4 4 2 1 2 4 6 4 3 3 5 5 4 5 5 6 8 10 11 13 15 13 10 12 20 27 28 28 30 33 35 36 37 37 38 40 43
4 4 4 2 1 3 4 3 2 3 2 3 1 0 1 1 1 3 3 4 4 3 1 3 7 6 1 1 2 4 5 5 7 9 8 4 3 3 1 0 0 3 5 3 2 3 3 2 3 4 3 3 3 2 1 4 6 5 8 8 6 6 5 5 6 6 6 8 10 10 9 9 9 10 15 22 25 24 24 27 31 35 39 41 41 44 46 47
4 4 5 3 1 3 3 2 3 3 0 1 0 1 2 3 3 3 1 4 2 0 3 4 3 2 3 4 3 6 12 13 11 10 8 5 4 4 3 1 0 1 2 2 2 2 2 2 2 3 2 3 5 5 1 3 4 3 7 7 5 6 9 9 7 7 8 6 6 7 7 9 12 14 17 21 20 19 23 28 32 37 42 45 46 48 51 52
Wind_Direction
358 356 354 353 353 353 353 353 353 352 353 351 348 349 351 350 348 348 347 350 354 356 354 346 335 337 343 354 7 18 45 59 50 40 34 33 27 52 96 349 343 315 299 300 315 320 336 354 33 21 351 255 227 227 217 213 202 192 191 219 225 215 208 183 166 192 159 160 199 193 191 192 214 218 213 228 230 214 205 200 191 194 211 223 230 222 188 177
358 356 353 352 351 351 351 351 353 353 353 350 350 352 351 351 351 352 353 355 357 358 356 348 338 340 348 1 13 27 55 62 54 51 45 38 36 43 17 342 341 329 324 318 327 335 343 3 17 1 359 314 216 206 204 209 204 203 137 214 228 208 205 185 168 187 167 179 198 194 197 197 212 208 192 211 216 195 192 199 194 191 201 222 234 219 190 179
357 355 353 351 350 350 351 352 354 354 353 351 353 354 353 356 357 358 359 0 0 1 359 353 349 352 356 7 16 24 50 64 59 54 45 39 40 38 19 352 339 331 330 327 341 355 353 6 1 349 350 321 214 197 198 193 198 213 196 227 239 186 220 229 191 192 191 204 202 201 208 202 214 212 193 205 216 201 188 198 195 188 203 222 226 213 193 181
356 353 351 349 348 349 351 353 353 354 353 352 355 357 359 2 3 4 4 5 6 6 5 2 4 6 6 15 19 21 49 64 56 50 41 37 37 30 15 358 354 346 340 348 9 19 14 12 358 347 341 308 219 199 205 199 199 208 197 222 242 180 225 237 232 236 224 217 227 236 235 223 226 221 214 214 213 220 206 202 197 191 204 213 211 204 194 184
354 351 349 348 346 348 350 351 353 355 353 353 357 0 5 8 9 10 9 10 11 13 14 13 14 14 17 21 20 23 49 60 38 45 37 31 35 26 12 357 357 4 16 30 24 20 15 7 356 353 345 308 269 196 212 214 215 239 225 230 242 239 250 230 227 241 250 246 233 243 253 252 252 232 225 220 207 226 228 217 210 203 208 215 212 202 193 185
353 350 349 347 345 348 348 349 351 354 353 353 358 2 9 11 12 13 12 12 14 18 19 20 23 25 30 30 25 26 47 72 16 25 22 24 29 19 14 1 355 2 25 26 8 10 7 8 12 6 13 326 304 208 246 229 218 239 257 237 240 234 229 243 233 230 245 246 215 218 249 252 248 251 234 226 224 229 235 236 226 219 226 234 222 203 193 190
352 350 349 347 345 347 347 347 349 352 352 353 356 0 8 9 11 12 13 14 16 20 21 25 28 28 36 33 27 26 51 61 7 358 352 10 9 359 8 2 359 340 340 356 359 11 9 21 23 10 39 2 323 233 289 273 227 226 253 255 255 247 233 247 252 245 252 255 244 233 239 250 241 251 250 240 240 235 234 260 246 227 230 235 218 202 199 197
352 350 350 347 347 347 346 345 346 350 351 353 354 356 1 2 6 9 12 15 15 19 21 26 28 29 36 29 24 28 40 15 346 338 318 339 340 339 350 352 2 346 333 346 356 11 13 23 20 9 46 350 328 274 321 335 262 219 236 262 253 255 252 253 262 266 269 272 273 266 250 248 243 247 245 237 247 249 248 270 278 255 242 234 214 205 204 202
353 351 350 348 349 347 346 347 351 356 357 356 353 349 348 349 359 5 9 11 11 16 17 20 23 24 28 22 25 37 29 359 340 327 290 289 300 320 342 342 353 349 338 339 344 356 354 6 8 360 332 280 304 301 338 10 292 205 236 271 253 249 251 250 254 261 267 270 270 273 271 268 256 252 249 235 240 254 258 266 270 255 245 232 215 208 204 203
354 352 350 349 351 349 350 357 4 8 5 1 351 343 334 332 349 359 1 1 1 5 6 11 11 11 13 8 22 51 25 9 2 354 320 290 295 331 12 357 342 343 340 334 335 337 331 336 337 342 329 289 310 298 308 140 279 297 271 269 256 250 249 238 238 249 257 263 255 249 277 283 271 243 238 230 220 235 247 257 258 242 233 225 215 207 204 203
354 353 351 350 352 353 359 9 12 10 7 360 349 340 326 317 333 350 351 348 349 355 358 2 1 1 358 350 8 44 14 10 11 11 13 14 16 26 39 23 344 338 331 321 320 322 325 331 322 328 330 319 324 302 294 270 300 303 289 280 267 253 246 232 222 237 243 253 248 229 242 277 274 239 228 221 205 229 252 257 246 232 227 222 214 206 204 203
356 353 352 351 352 357 8 14 6 3 5 1 350 336 318 306 316 334 338 339 343 349 351 357 1 359 355 350 2 9 359 1 1 10 28 29 34 35 22 8 342 336 326 314 314 316 318 329 319 306 301 319 323 310 315 314 306 299 289 299 292 291 241 229 210 218 222 230 226 201 239 268 252 238 234 222 220 242 252 249 229 219 221 219 213 207 204 202
356 353 353 351 352 358 8 8 360 356 358 358 354 339 314 297 301 320 330 336 345 350 350 355 0 358 355 0 1 353 350 351 2 21 29 15 12 6 352 343 341 342 328 316 322 322 302 306 308 297 298 300 287 292 311 308 301 296 287 171 298 355 288 224 201 202 206 218 204 182 231 246 245 244 231 216 221 234 235 224 212 210 215 215 212 209 205 201
355 353 352 350 351 354 357 358 353 349 346 348 352 342 316 292 290 308 322 333 346 351 351 350 358 358 349 4 12 2 359 357 3 12 7 0 354 353 356 344 338 334 314 317 330 324 294 285 292 299 295 273 265 291 310 316 318 302 297 230 307 346 278 247 197 184 192 219 198 182 230 239 247 242 171 228 224 225 228 214 206 203 206 209 209 207 204 201
355 351 350 351 349 345 344 346 344 344 343 345 349 338 319 294 285 298 313 328 340 345 347 345 352 349 334 357 21 8 6 4 360 353 342 346 346 347 353 337 325 314 299 316 327 319 291 277 282 289 283 263 273 312 325 335 356 1 310 295 321 180 263 293 231 183 181 207 191 187 230 241 250 240 213 233 218 217 219 209 203 197 199 202 201 202 202 204
356 350 348 349 347 337 331 335 337 341 343 346 348 338 327 313 284 290 309 323 331 336 338 341 347 343 329 3 15 8 10 8 9 9 351 347 347 345 344 333 325 317 307 314 318 309 276 273 279 273 273 265 274 75 31 348 331 359 81 260 277 207 261 303 279 203 185 178 184 204 223 220 246 249 235 230 224 229 223 206 198 193 196 196 197 201 205 209
356 350 345 347 346 330 323 329 335 340 343 346 348 343 341 347 290 286 315 323 324 326 329 343 346 335 324 11 5 2 5 7 15 19 10 358 353 350 348 340 337 332 325 322 321 308 248 243 253 251 306 359 82 92 53 326 295 312 354 267 261 238 232 256 303 285 195 195 203 213 219 218 245 264 251 222 211 224 224 211 200 193 195 196 199 203 208 211
356 351 345 346 343 326 322 328 336 342 345 348 351 353 359 11 331 312 323 326 324 326 337 357 357 358 238 346 349 350 353 354 4 11 8 359 354 355 356 347 345 346 345 343 351 354 248 240 78 23 8 2 30 94 149 224 217 223 239 333 309 298 270 249 275 329 194 225 224 215 209 229 258 274 265 227 202 212 217 213 204 197 197 198 200 203 208 210
355 351 346 346 342 325 319 324 339 344 348 357 359 357 26 32 357 343 336 339 350 9 354 341 353 39 263 319 338 344 347 344 347 359 358 348 348 350 357 353 349 1 6 1 357 4 15 30 29 2 317 296 240 166 192 216 196 189 192 174 239 286 283 265 259 258 237 184 237 227 190 212 226 247 256 230 202 212 222 216 205 201 199 199 201 202 205 207
355 352 349 348 342 328 316 320 340 345 350 5 10 32 43 20 9 346 346 4 30 4 332 328 328 302 302 324 346 346 341 343 343 353 353 345 346 339 353 358 359 27 27 344 324 347 58 58 335 257 256 260 245 212 210 227 198 172 177 192 230 257 278 271 254 259 241 161 252 217 167 201 212 231 251 213 202 210 217 214 203 206 205 201 202 203 204 207
356 354 352 350 344 335 321 317 337 350 355 5 16 57 48 18 24 346 342 1 27 356 351 353 343 335 345 351 2 352 340 336 342 359 2 352 358 344 347 6 24 34 358 303 296 331 54 55 294 265 257 257 252 224 209 242 233 200 207 230 262 232 251 268 255 268 241 162 278 183 159 210 219 230 243 172 187 204 208 204 195 204 209 207 206 207 208 210
357 356 355 351 345 339 328 322 339 353 357 2 18 48 43 18 21 353 343 326 336 9 15 10 8 6 5 5 359 350 337 316 339 2 8 356 3 355 350 28 55 6 325 345 24 357 27 16 281 289 288 280 259 216 195 224 229 205 187 173 254 245 260 285 287 308 349 144 270 205 175 234 239 240 241 178 184 205 212 211 201 201 206 208 209 212 214 213
358 358 358 351 345 341 330 324 339 349 352 359 16 35 29 14 4 344 345 306 308 11 18 12 11 359 359 2 345 341 336 309 333 352 1 352 355 359 1 44 47 342 340 24 57 15 11 258 273 303 328 1 14 330 132 164 222 177 144 136 233 262 281 277 297 332 354 65 182 155 177 281 288 270 255 213 207 215 220 221 214 205 205 209 211 215 218 215
357 359 2 356 349 343 329 319 334 345 343 353 13 25 19 15 11 328 333 306 265 358 5 2 360 351 349 350 338 332 329 310 326 345 357 353 351 356 348 91 46 23 329 349 134 189 240 257 280 320 353 31 52 28 62 89 1 317 168 157 252 293 270 226 289 336 348 7 57 82 52 317 330 283 256 253 237 240 234 227 227 217 212 214 215 216 219 218
356 358 2 2 356 345 336 321 330 341 336 344 3 17 18 16 20 356 342 34 241 339 357 354 349 351 347 347 341 330 319 321 344 353 358 358 352 335 315 45 71 345 294 293 169 237 254 265 298 347 6 36 68 44 35 92 26 337 228 205 248 288 285 273 328 12 39 360 340 62 57 288 322 277 252 307 316 248 259 233 227 225 220 217 216 217 218 217
353 353 355 2 2 353 343 318 329 341 333 338 351 8 17 3 11 16 7 60 342 326 349 348 345 352 347 350 352 346 357 342 340 355 1 357 343 319 302 350 81 265 284 296 347 261 264 303 10 19 23 39 52 40 351 113 81 359 236 197 245 303 284 278 357 53 90 265 290 63 132 242 320 292 248 312 303 242 287 294 243 224 220 221 219 219 218 215
347 348 348 356 2 3 360 330 327 338 334 343 353 1 354 341 350 360 19 46 1 317 332 335 341 351 346 358 13 36 152 332 333 357 3 352 333 329 264 312 336 270 282 49 12 267 273 341 9 18 39 50 40 18 281 125 99 313 249 175 326 338 287 234 82 77 177 243 327 15 91 135 308 272 253 335 192 230 275 282 268 236 219 219 222 223 221 219
342 344 343 350 360 5 12 4 334 338 345 344 351 344 319 319 306 231 81 77 334 331 343 333 338 351 351 11 30 50 102 352 353 344 360 9 346 345 265 294 244 251 295 112 289 276 236 323 341 11 23 27 359 237 249 134 106 270 252 49 352 4 79 84 89 88 359 37 342 333 25 110 269 280 305 35 122 204 254 257 270 271 251 232 227 227 226 225
340 343 339 343 354 359 7 9 351 346 346 341 342 330 310 293 251 87 72 105 315 348 357 346 343 346 350 5 26 25 21 21 4 334 5 35 13 2 220 308 283 241 352 113 224 265 244 243 228 99 53 254 246 248 236 149 248 283 150 73 34 51 54 62 81 90 39 50 259 295 355 90 267 294 316 28 91 187 247 258 277 290 289 262 241 235 230 228
343 351 346 340 347 353 358 357 349 344 343 341 336 331 321 263 130 65 43 237 293 339 321 350 346 330 347 358 7 5 6 8 354 355 16 34 35 45 71 327 11 61 15 21 234 264 285 280 206 136 205 232 238 259 241 169 275 341 65 50 26 24 18 38 49 74 57 13 256 262 353 102 277 287 276 257 100 178 171 330 304 307 319 297 267 261 246 239
348 357 354 347 343 350 350 348 350 344 340 338 331 331 359 82 67 86 63 250 258 331 332 350 337 332 358 12 349 350 347 343 355 10 16 15 32 37 33 2 7 27 15 358 349 313 328 2 69 272 270 280 327 344 1 350 340 58 65 46 41 348 360 26 358 34 79 281 260 275 2 105 169 261 246 227 265 272 126 86 323 309 330 348 2 359 315 264
360 4 360 358 354 353 349 349 354 349 343 342 337 342 121 48 26 109 252 319 308 321 341 307 315 342 349 351 355 344 336 338 353 14 16 359 30 34 37 40 349 11 10 342 343 337 343 2 321 318 329 16 37 38 347 349 13 49 56 56 71 345 8 17 317 6 136 239 274 342 355 105 210 244 242 224 255 270 234 221 323 311 326 348 9 21 15 359
3 13 12 12 9 1 355 353 356 355 352 351 344 48 92 73 26 235 260 332 261 258 319 284 309 337 342 359 360 335 335 347 350 1 5 17 44 30 24 29 29 62 5 310 356 357 341 312 340 7 360 4 57 92 1 330 358 34 71 86 96 102 66 294 274 349 261 253 318 332 331 304 276 268 236 206 223 250 266 285 320 327 334 345 357 7 5 3
345 16 19 24 20 9 3 358 358 2 360 4 31 75 64 71 235 270 283 267 251 297 5 8 327 337 2 17 323 328 1 330 343 5 357 14 40 9 346 7 22 43 87 50 21 18 26 311 330 22 320 340 32 118 153 152 20 5 156 134 117 141 136 204 218 175 226 266 319 319 316 173 211 232 208 214 234 256 277 287 323 3 353 358 3 8 7 3
311 355 15 25 27 19 12 4 4 11 10 39 67 66 72 136 246 284 258 253 285 328 328 13 24 8 354 330 301 8 50 310 334 8 3 20 53 360 348 354 9 22 56 53 321 295 71 259 260 284 275 303 2 303 174 108 56 282 161 96 49 186 141 108 165 172 159 11 315 292 234 206 229 265 265 267 6 320 293 302 59 58 29 22 14 14 10 4
314 307 14 25 27 22 18 9 9 17 29 80 75 57 132 190 213 175 208 260 50 343 333 7 35 34 344 320 323 349 33 243 335 359 3 9 5 344 360 328 1 41 71 90 279 301 25 278 277 326 299 271 354 309 228 84 160 279 63 88 255 183 121 101 150 40 66 73 287 281 268 295 313 298 312 26 52 63 53 11 349 347 15 23 11 14 5 353
328 223 30 26 25 21 18 14 14 23 48 85 86 95 201 202 191 181 200 209 110 76 73 43 4 25 340 315 309 325 343 359 347 3 6 346 325 359 12 317 338 40 93 173 260 239 101 286 293 350 317 294 337 20 31 33 95 92 76 213 240 58 82 103 132 9 42 120 278 307 267 296 330 288 320 354 6 359 28 47 319 317 326 334 352 3 352 340
345 186 45 22 17 12 17 22 17 31 70 75 75 162 186 204 214 210 184 128 112 58 82 98 295 69 309 298 293 302 336 5 355 2 354 330 327 351 37 316 317 353 348 168 181 236 176 296 294 306 278 300 338 57 38 349 30 95 170 195 102 83 359 36 99 20 31 239 295 317 289 272 207 221 296 319 324 320 317 324 295 274 281 303 333 351 346 339
345 180 48 14 3 360 15 26 18 40 78 72 73 199 199 238 245 232 160 104 102 82 83 200 207 17 277 230 270 296 344 10 351 350 350 11 329 316 9 166 293 333 344 36 155 225 200 348 287 285 299 312 348 48 27 326 350 21 42 17 45 126 162 207 134 154 170 212 284 315 318 270 224 223 248 275 287 297 304 314 314 285 309 331 343 351 349 342
342 172 60 5 349 350 16 38 41 60 75 92 184 203 254 253 263 269 67 39 121 102 100 199 153 348 287 263 274 278 334 354 358 338 298 190 309 305 295 269 290 324 337 351 120 240 19 49 274 290 325 349 353 52 154 151 358 4 25 8 337 360 58 82 45 80 127 157 176 291 303 270 245 215 209 252 286 303 312 319 320 327 345 342 335 336 335 332
52 122 35 354 342 353 47 57 53 64 80 97 181 233 308 292 299 330 25 95 134 123 160 172 158 185 242 311 313 251 292 344 32 308 286 248 316 306 268 279 312 325 338 359 6 347 41 58 280 304 335 338 287 262 186 155 117 104 83 24 346 348 37 79 346 332 43 116 168 168 283 270 255 225 226 262 322 348 334 323 312 316 323 324 322 324 324 322
55 80 18 351 341 44 84 67 30 39 99 69 312 266 294 330 345 337 12 80 81 76 120 150 157 172 196 229 264 269 310 312 273 259 251 257 247 216 265 302 322 321 318 344 304 287 143 116 306 289 289 284 292 300 171 152 116 95 86 59 90 82 74 102 186 283 354 344 195 120 284 271 270 266 162 94 19 337 325 323 322 320 320 320 320 321 320 317
31 68 28 359 348 107 89 56 352 357 45 321 312 270 282 302 12 2 358 22 17 33 40 20 169 174 229 210 169 348 265 249 225 216 282 284 251 247 283 307 322 327 335 300 294 297 56 69 359 298 298 299 307 346 54 81 77 69 44 40 69 60 69 130 179 184 145 282 239 78 282 269 271 255 169 349 334 331 330 331 330 323 318 317 316 314 312 310
13 46 42 21 3 143 102 93 323 325 305 326 358 8 333 289 97 25 335 311 327 131 102 332 187 187 255 220 129 204 223 95 188 228 257 241 262 289 301 315 324 303 175 273 298 327 350 359 45 353 333 333 339 360 10 12 40 50 354 22 53 49 42 61 111 83 38 237 170 160 251 254 256 297 320 331 335 331 324 323 321 315 311 311 311 310 308 306
9 25 37 33 42 91 97 104 151 185 291 356 20 9 357 344 3 16 311 263 275 167 164 297 234 194 245 2 11 249 236 152 202 243 260 237 277 290 307 332 341 323 279 295 292 328 72 192 138 10 311 299 312 310 302 325 345 357 19 28 39 45 31 15 74 90 331 251 180 194 263 274 280 317 322 322 328 319 312 313 311 307 306 307 307 307 305 303
27 21 360 23 49 79 86 63 56 98 186 61 52 17 30 347 327 358 359 277 308 204 205 254 313 116 47 20 356 315 316 249 244 305 282 260 283 283 305 332 355 6 346 338 336 116 100 150 214 215 230 248 267 274 192 151 283 295 30 21 18 36 27 29 103 143 225 294 271 242 263 283 291 309 313 309 315 311 306 308 308 307 307 306 305 304 301 299
46 45 339 1 22 62 82 45 30 28 220 131 116 20 35 341 317 349 354 292 357 350 287 188 64 60 6 7 9 306 315 323 304 294 261 255 258 282 315 337 17 13 354 357 22 96 102 321 247 210 237 252 260 281 284 196 253 313 14 6 344 358 26 58 129 210 219 302 279 260 272 287 292 302 307 306 309 306 304 308 309 309 307 305 303 301 299 297
42 126 103 45 338 331 88 3 360 359 314 144 133 82 40 11 348 344 301 318 348 12 45 347 335 341 234 216 100 299 312 342 325 268 257 295 302 319 343 360 39 2 1 6 7 64 127 262 251 219 269 273 266 285 294 279 281 47 38 356 337 344 357 360 252 233 216 240 265 284 292 285 287 295 299 299 303 303 303 304 304 304 303 301 300 298 296 295
52 127 116 36 290 220 251 316 334 13 26 24 76 55 55 16 342 294 265 335 345 350 71 314 302 319 277 200 148 193 305 344 319 286 270 344 341 348 2 346 320 359 13 19 360 36 108 302 309 298 297 297 284 271 285 332 73 87 56 359 344 329 307 286 265 251 245 249 260 278 284 279 278 283 290 298 302 301 300 300 299 298 297 297 296 294 293 292
58 76 352 357 313 314 328 324 353 56 28 12 45 49 80 196 326 319 267 199 290 313 42 286 294 307 270 175 168 226 259 234 245 255 250 356 349 328 19 317 290 345 7 18 354 8 40 352 335 328 308 303 301 261 170 113 124 111 69 26 350 331 312 290 281 274 269 267 266 272 277 277 277 284 297 303 303 301 300 299 298 299 299 298 296 292 290 288
49 38 15 21 14 349 344 342 61 85 30 13 64 185 332 235 299 340 279 226 214 243 290 292 292 300 326 131 200 249 278 266 247 253 260 263 255 236 251 354 219 337 349 353 358 2 5 341 326 335 327 299 316 352 87 154 152 102 38 11 347 344 337 308 291 281 278 282 283 283 279 278 291 307 305 300 298 297 296 297 299 301 302 300 297 294 292 289
30 15 5 12 338 341 355 11 53 82 164 291 233 247 263 267 300 9 326 268 249 226 340 320 279 277 343 337 299 304 313 305 289 280 270 249 233 236 254 281 164 243 300 331 17 14 355 349 331 340 336 286 310 342 38 147 142 59 5 340 315 325 324 310 297 286 277 274 282 288 280 283 298 307 303 300 301 299 297 299 301 300 298 296 293 291 289 288
Height
1515 1513 1511 1510 1508 1507 1506 1504 1503 1502 1500 1499 1498 1496 1495 1493 1492 1491 1489 1488 1487 1486 1485 1484 1483 1483 1484 1484 1483 1483 1482 1482 1481 1481 1480 1480 1480 1481 1481 1482 1482 1482 1482 1482 1482 1482 1482 1482 1482 1482 1482 1483 1483 1484 1485 1486 1487 1488 1488 1490 1488 1486 1487 1484 1484 1486 1485 1485 1486 1486 1486 1487 1488 1487 1489 1490 1490 1489 1490 1489 1489 1491 1492 1494 1496 1498 1499 1500
1515 1513 1511 1510 1508 1507 1506 1504 1503 1502 1500 1499 1497 1496 1495 1493 1492 1490 1489 1488 1487 1486 1485 1483 1483 1483 1483 1483 1483 1482 1482 1482 1482 1481 1481 1481 1481 1481 1482 1482 1482 1482 1482 1482 1482 1482 1482 1482 1482 1482 1482 1482 1483 1483 1484 1485 1485 1486 1486 1488 1485 1483 1483 1481 1481 1482 1482 1484 1484 1484 1485 1486 1486 1487 1488 1489 1489 1488 1489 1489 1489 1489 1490 1493 1496 1498 1499 1499
1515 1513 1511 1509 1508 1507 1505 1504 1503 1502 1500 1499 1497 1496 1495 1493 1492 1490 1489 1488 1487 1486 1485 1483 1483 1483 1483 1483 1482 1482 1482 1482 1482 1482 1482 1482 1482 1482 1482 1482 1482 1482 1482 1482 1482 1481 1481 1482 1482 1482 1482 1482 1482 1483 1483 1484 1484 1484 1486 1487 1483 1481 1482 1480 1480 1481 1481 1483 1483 1483 1484 1484 1485 1486 1487 1486 1487 1487 1487 1487 1487 1486 1488 1492 1495 1497 1498 1498
1515 1513 1511 1509 1508 1507 1505 1504 1503 1501 1500 1499 1497 1496 1495 1493 1492 1491 1490 1488 1487 1486 1485 1483 1483 1483 1483 1483 1482 1482 1482 1482 1482 1483 1483 1482 1482 1482 1482 1482 1481 1481 1481 1481 1481 1481 1481 1481 1482 1481 1481 1481 1482 1482 1483 1483 1483 1483 1483 1484 1481 1480 1481 1480 1480 1480 1481 1482 1482 1483 1483 1484 1484 1485 1484 1484 1485 1486 1484 1484 1484 1484 1487 1490 1493 1495 1496 1497
1515 1513 1511 1509 1508 1506 1505 1504 1502 1501 1500 1499 1497 1496 1495 1494 1492 1491 1490 1488 1487 1486 1485 1484 1483 1483 1483 1483 1482 1482 1482 1483 1483 1483 1483 1483 1482 1482 1482 1481 1481 1481 1481 1481 1481 1481 1481 1481 1481 1481 1481 1481 1481 1482 1482 1481 1482 1482 1480 1479 1479 1480 1481 1480 1480 1481 1481 1481 1482 1482 1482 1483 1483 1483 1482 1482 1483 1483 1482 1482 1483 1483 1485 1488 1490 1492 1494 1495
1515 1513 1510 1509 1507 1506 1505 1504 1502 1501 1500 1498 1497 1496 1495 1494 1493 1492 1490 1489 1488 1487 1486 1485 1484 1483 1483 1483 1483 1482 1482 1484 1484 1483 1483 1483 1482 1482 1482 1481 1481 1481 1481 1481 1481 1481 1481 1481 1481 1481 1481 1481 1482 1482 1481 1480 1481 1481 1479 1478 1478 1479 1480 1480 1480 1480 1480 1480 1481 1481 1481 1481 1481 1481 1480 1480 1480 1479 1480 1481 1481 1482 1483 1485 1487 1489 1492 1493
1515 1512 1510 1508 1507 1506 1505 1503 1502 1501 1500 1498 1497 1496 1495 1494 1493 1492 1491 1490 1489 1488 1487 1485 1484 1483 1483 1483 1483 1482 1482 1483 1483 1483 1483 1482 1482 1482 1482 1481 1481 1481 1481 1481 1481 1481 1481 1481 1481 1481 1481 1482 1482 1481 1480 1479 1479 1479 1478 1477 1478 1478 1478 1479 1479 1479 1479 1479 1479 1480 1480 1480 1480 1481 1480 1479 1478 1478 1479 1479 1479 1480 1481 1483 1485 1486 1488 1490
1514 1512 1510 1508 1506 1505 1504 1503 1502 1501 1499 1498 1497 1496 1496 1494 1493 1492 1491 1490 1489 1488 1487 1486 1485 1484 1484 1483 1483 1482 1483 1483 1483 1483 1482 1482 1482 1482 1482 1481 1481 1481 1481 1481 1481 1481 1481 1481 1481 1481 1481 1481 1481 1481 1479 1479 1478 1478 1478 1477 1477 1476 1476 1477 1477 1477 1478 1478 1479 1479 1478 1478 1479 1480 1478 1478 1478 1477 1477 1478 1479 1480 1480 1482 1483 1485 1485 1486
1514 1511 1509 1507 1506 1505 1504 1503 1501 1500 1499 1498 1497 1496 1496 1495 1493 1493 1492 1491 1490 1489 1488 1487 1486 1485 1484 1484 1483 1483 1483 1483 1482 1482 1482 1481 1481 1481 1481 1481 1481 1481 1481 1481 1481 1481 1481 1481 1481 1481 1481 1481 1481 1480 1479 1479 1478 1477 1477 1476 1475 1474 1474 1475 1475 1476 1476 1477 1478 1477 1476 1476 1477 1478 1476 1475 1477 1476 1476 1476 1477 1479 1479 1479 1481 1483 1484 1485
1513 1511 1509 1507 1506 1505 1504 1503 1501 1500 1499 1498 1497 1496 1496 1495 1494 1493 1492 1491 1490 1490 1489 1487 1486 1486 1485 1484 1483 1483 1483 1483 1482 1481 1481 1481 1481 1481 1481 1481 1480 1480 1480 1480 1480 1480 1480 1480 1480 1481 1480 1480 1480 1479 1478 1479 1477 1476 1476 1475 1473 1472 1472 1473 1473 1474 1475 1475 1476 1476 1476 1475 1475 1477 1473 1472 1474 1474 1475 1475 1475 1476 1476 1476 1478 1480 1482 1484
1513 1511 1509 1507 1506 1505 1504 1502 1501 1500 1500 1498 1497 1496 1495 1494 1494 1493 1492 1491 1491 1490 1489 1488 1487 1486 1485 1485 1484 1484 1483 1483 1482 1481 1481 1480 1481 1481 1480 1480 1480 1480 1480 1479 1479 1480 1480 1480 1480 1480 1480 1479 1479 1478 1477 1477 1475 1474 1474 1473 1471 1470 1470 1470 1471 1472 1473 1474 1474 1475 1476 1474 1474 1472 1469 1470 1473 1473 1474 1474 1474 1475 1474 1475 1475 1477 1479 1481
1512 1510 1508 1507 1505 1504 1503 1503 1501 1500 1500 1499 1497 1496 1495 1494 1494 1493 1492 1491 1491 1490 1489 1488 1487 1487 1486 1485 1484 1484 1483 1483 1482 1482 1481 1481 1481 1481 1480 1480 1480 1479 1479 1479 1479 1479 1479 1479 1479 1479 1479 1479 1479 1477 1476 1475 1474 1472 1472 1472 1469 1468 1468 1467 1468 1470 1471 1472 1472 1474 1477 1475 1470 1465 1465 1470 1472 1472 1472 1472 1472 1473 1473 1473 1474 1475 1478 1480
1512 1510 1508 1507 1505 1504 1503 1503 1502 1500 1499 1498 1497 1496 1494 1494 1493 1493 1492 1491 1491 1490 1489 1488 1488 1487 1486 1485 1485 1484 1483 1483 1482 1482 1482 1481 1481 1480 1480 1480 1479 1479 1478 1478 1478 1478 1479 1478 1478 1479 1478 1478 1478 1477 1475 1473 1473 1471 1471 1472 1470 1469 1468 1464 1465 1468 1469 1470 1470 1473 1480 1476 1464 1461 1466 1469 1470 1470 1470 1470 1471 1471 1472 1472 1472 1474 1476 1479
1512 1510 1508 1507 1505 1504 1503 1503 1502 1501 1499 1498 1497 1495 1493 1493 1493 1493 1492 1491 1491 1490 1489 1489 1488 1487 1486 1486 1485 1484 1484 1483 1482 1482 1481 1481 1480 1480 1480 1479 1479 1478 1478 1477 1477 1477 1478 1477 1478 1477 1477 1477 1476 1476 1475 1474 1473 1472 1471 1472 1473 1473 1467 1462 1463 1465 1466 1468 1467 1472 1479 1472 1461 1462 1467 1467 1468 1469 1468 1469 1469 1470 1471 1471 1472 1473 1475 1477
1512 1510 1508 1507 1505 1504 1503 1503 1502 1500 1499 1498 1496 1494 1492 1492 1492 1492 1492 1491 1490 1490 1489 1489 1488 1487 1486 1486 1485 1485 1484 1483 1482 1481 1481 1481 1480 1479 1479 1479 1478 1478 1477 1477 1477 1476 1476 1477 1477 1476 1476 1476 1475 1476 1476 1475 1473 1474 1474 1473 1474 1474 1467 1461 1461 1462 1463 1465 1466 1469 1473 1467 1461 1463 1465 1466 1466 1466 1466 1467 1467 1468 1470 1471 1471 1473 1474 1476
1512 1509 1508 1506 1505 1504 1503 1503 1501 1500 1499 1497 1495 1493 1491 1491 1492 1492 1492 1491 1490 1490 1489 1489 1488 1488 1487 1486 1485 1484 1483 1482 1481 1481 1480 1480 1479 1479 1478 1478 1477 1477 1477 1476 1475 1475 1475 1475 1476 1476 1475 1475 1476 1477 1477 1478 1475 1475 1477 1474 1472 1472 1469 1463 1459 1458 1459 1460 1464 1465 1466 1464 1462 1461 1462 1464 1465 1465 1465 1465 1466 1467 1468 1470 1471 1472 1473 1474
1512 1509 1507 1506 1505 1504 1503 1502 1501 1500 1498 1496 1494 1492 1491 1491 1491 1491 1491 1491 1490 1490 1489 1489 1488 1487 1486 1485 1485 1484 1483 1482 1481 1480 1480 1479 1479 1478 1478 1477 1476 1476 1475 1475 1474 1474 1474 1475 1475 1475 1475 1476 1477 1477 1480 1482 1478 1476 1477 1474 1472 1472 1471 1467 1460 1458 1458 1458 1460 1459 1461 1462 1460 1459 1460 1461 1463 1464 1464 1464 1465 1466 1467 1468 1469 1470 1471 1472
1512 1509 1507 1506 1505 1504 1503 1502 1501 1500 1498 1496 1493 1492 1491 1491 1491 1491 1491 1490 1490 1489 1489 1489 1488 1488 1488 1485 1485 1485 1484 1483 1481 1480 1479 1479 1479 1478 1477 1477 1476 1475 1474 1473 1473 1473 1474 1474 1474 1475 1476 1477 1477 1477 1481 1481 1476 1474 1474 1474 1474 1473 1472 1469 1463 1460 1458 1458 1457 1458 1461 1462 1460 1459 1458 1459 1462 1462 1462 1462 1462 1463 1465 1467 1468 1469 1469 1470
1511 1509 1507 1506 1504 1503 1503 1502 1501 1500 1498 1496 1493 1492 1492 1491 1491 1491 1491 1490 1489 1489 1490 1489 1489 1491 1491 1487 1485 1485 1484 1483 1481 1480 1479 1479 1478 1478 1477 1477 1476 1475 1474 1473 1473 1473 1474 1474 1475 1477 1476 1475 1475 1476 1477 1475 1473 1473 1473 1474 1474 1473 1470 1467 1463 1460 1458 1458 1457 1458 1461 1461 1460 1458 1456 1457 1460 1460 1461 1461 1461 1462 1463 1464 1466 1467 1468 1469
1511 1509 1507 1506 1504 1503 1503 1502 1501 1500 1498 1496 1494 1492 1492 1492 1492 1492 1491 1490 1490 1491 1491 1491 1490 1491 1490 1487 1486 1485 1483 1482 1481 1480 1479 1478 1477 1477 1477 1476 1475 1475 1475 1475 1475 1474 1474 1476 1478 1478 1476 1474 1473 1474 1473 1473 1474 1474 1474 1473 1474 1474 1470 1464 1461 1459 1457 1458 1457 1458 1459 1458 1457 1456 1454 1456 1458 1458 1459 1460 1461 1461 1462 1463 1464 1466 1467 1468
1511 1509 1507 1505 1504 1503 1503 1502 1502 1500 1499 1497 1495 1493 1495 1496 1496 1495 1493 1491 1491 1491 1491 1491 1490 1490 1488 1487 1486 1485 1483 1481 1481 1480 1479 1478 1477 1476 1476 1476 1476 1476 1477 1476 1476 1475 1475 1478 1478 1475 1474 1472 1471 1472 1473 1473 1474 1474 1474 1474 1474 1474 1469 1460 1458 1458 1457 1458 1458 1458 1458 1457 1455 1453 1453 1455 1456 1456 1456 1457 1459 1460 1461 1462 1463 1465 1466 1467
1511 1508 1507 1505 1504 1503 1503 1502 1502 1501 1500 1499 1497 1496 1498 1498 1498 1498 1496 1494 1492 1491 1491 1490 1490 1489 1489 1488 1486 1485 1484 1482 1480 1480 1479 1478 1477 1476 1476 1476 1477 1478 1478 1476 1476 1477 1477 1478 1476 1473 1472 1471 1470 1471 1472 1472 1473 1473 1475 1474 1472 1471 1467 1460 1457 1457 1456 1456 1458 1458 1456 1454 1453 1452 1453 1455 1453 1453 1453 1453 1455 1456 1459 1460 1461 1463 1465 1467
1511 1509 1507 1505 1504 1503 1503 1502 1502 1501 1501 1499 1498 1498 1499 1499 1498 1498 1498 1497 1494 1491 1491 1490 1489 1489 1488 1488 1487 1485 1484 1482 1481 1479 1479 1478 1477 1477 1476 1476 1478 1479 1478 1477 1478 1480 1480 1477 1474 1472 1471 1469 1468 1470 1471 1471 1472 1473 1473 1472 1469 1468 1467 1461 1457 1457 1457 1456 1457 1458 1456 1454 1454 1452 1451 1453 1452 1451 1451 1452 1452 1454 1455 1457 1459 1461 1463 1464
1511 1509 1507 1506 1504 1503 1503 1503 1502 1501 1501 1500 1499 1499 1498 1498 1498 1498 1497 1497 1495 1492 1491 1491 1490 1489 1489 1488 1487 1485 1484 1483 1482 1480 1479 1478 1477 1477 1476 1476 1477 1478 1478 1478 1479 1480 1479 1475 1473 1472 1472 1469 1467 1469 1469 1468 1469 1470 1471 1469 1467 1465 1464 1462 1460 1459 1458 1458 1458 1457 1458 1456 1455 1453 1449 1450 1452 1450 1451 1452 1452 1453 1453 1455 1457 1459 1460 1462
1510 1509 1508 1506 1505 1504 1503 1503 1502 1501 1501 1500 1499 1499 1499 1498 1498 1497 1497 1497 1497 1493 1491 1491 1490 1489 1489 1488 1486 1485 1483 1482 1482 1481 1480 1478 1478 1477 1476 1476 1477 1478 1477 1477 1478 1478 1476 1474 1473 1472 1472 1470 1468 1469 1470 1469 1468 1469 1468 1466 1465 1464 1463 1462 1462 1461 1460 1461 1460 1460 1463 1461 1458 1455 1451 1451 1452 1450 1450 1451 1451 1452 1452 1453 1455 1456 1458 1460
1510 1509 1508 1506 1505 1503 1503 1502 1502 1502 1501 1500 1500 1499 1499 1498 1498 1498 1497 1498 1498 1496 1492 1491 1491 1490 1489 1488 1485 1483 1484 1483 1481 1481 1480 1478 1478 1477 1477 1477 1477 1477 1476 1476 1477 1477 1475 1474 1473 1472 1472 1471 1470 1470 1470 1470 1470 1469 1466 1464 1465 1464 1463 1462 1461 1460 1462 1464 1463 1463 1465 1464 1460 1454 1453 1454 1452 1449 1450 1450 1450 1451 1452 1452 1452 1453 1455 1458
1510 1508 1507 1506 1505 1504 1503 1502 1502 1501 1501 1500 1500 1499 1498 1498 1498 1497 1497 1501 1502 1498 1496 1494 1493 1492 1490 1489 1485 1484 1488 1487 1481 1480 1479 1478 1477 1476 1477 1477 1477 1477 1475 1476 1478 1476 1474 1473 1473 1472 1472 1472 1471 1470 1469 1469 1470 1469 1465 1464 1464 1463 1463 1463 1461 1460 1464 1465 1463 1465 1464 1465 1463 1455 1456 1459 1453 1450 1451 1449 1449 1449 1451 1451 1450 1451 1453 1454
1509 1508 1507 1506 1505 1504 1503 1502 1502 1501 1501 1500 1499 1499 1498 1497 1498 1497 1499 1506 1506 1499 1498 1496 1493 1492 1491 1489 1487 1486 1490 1488 1483 1481 1478 1477 1477 1476 1476 1476 1476 1476 1475 1478 1480 1476 1473 1473 1473 1472 1473 1473 1470 1469 1468 1468 1468 1466 1464 1465 1465 1464 1464 1464 1462 1462 1467 1466 1464 1467 1466 1467 1466 1457 1457 1460 1454 1453 1452 1449 1450 1450 1450 1451 1451 1451 1452 1453
1509 1507 1507 1506 1505 1504 1503 1502 1501 1501 1500 1500 1499 1498 1497 1497 1497 1497 1500 1507 1506 1500 1500 1498 1494 1494 1491 1489 1488 1487 1488 1487 1486 1484 1479 1478 1477 1475 1477 1476 1476 1476 1475 1477 1479 1475 1472 1472 1471 1473 1474 1473 1469 1468 1468 1467 1467 1465 1465 1466 1465 1467 1467 1467 1466 1463 1466 1468 1468 1471 1470 1469 1467 1457 1454 1456 1455 1456 1454 1451 1453 1451 1450 1450 1450 1451 1451 1452
1508 1507 1506 1505 1505 1503 1503 1502 1501 1501 1500 1499 1499 1497 1497 1497 1498 1501 1505 1508 1506 1502 1500 1498 1496 1496 1494 1492 1490 1489 1489 1488 1487 1484 1480 1479 1478 1476 1477 1476 1476 1476 1477 1477 1476 1474 1472 1469 1470 1472 1472 1471 1468 1468 1468 1468 1467 1465 1465 1465 1464 1468 1468 1468 1470 1466 1468 1473 1471 1473 1473 1470 1469 1460 1454 1456 1456 1455 1453 1452 1453 1452 1450 1449 1449 1450 1451 1451
1508 1507 1506 1505 1504 1503 1502 1502 1501 1500 1499 1499 1498 1496 1496 1498 1500 1507 1511 1508 1506 1504 1501 1500 1499 1498 1497 1497 1496 1493 1490 1489 1487 1486 1484 1482 1480 1479 1479 1480 1480 1478 1478 1479 1476 1474 1471 1469 1470 1471 1470 1470 1468 1468 1468 1468 1467 1466 1466 1466 1466 1470 1470 1469 1471 1469 1474 1478 1473 1474 1476 1472 1470 1462 1455 1457 1457 1455 1453 1451 1452 1452 1451 1449 1449 1449 1450 1451
1508 1507 1506 1505 1504 1503 1502 1501 1500 1500 1499 1498 1497 1496 1497 1500 1507 1514 1513 1507 1506 1506 1504 1503 1501 1499 1500 1500 1499 1496 1493 1492 1490 1489 1490 1488 1488 1487 1487 1490 1489 1484 1484 1486 1483 1478 1472 1470 1472 1471 1469 1470 1469 1469 1469 1468 1467 1466 1467 1469 1471 1477 1477 1476 1478 1478 1479 1478 1474 1476 1476 1472 1469 1459 1453 1457 1457 1454 1454 1453 1452 1452 1452 1450 1449 1449 1449 1450
1509 1507 1506 1505 1504 1503 1502 1501 1500 1499 1498 1497 1496 1496 1498 1505 1513 1517 1514 1509 1508 1507 1505 1505 1503 1502 1502 1501 1500 1498 1495 1495 1493 1491 1492 1491 1492 1492 1491 1492 1492 1490 1490 1491 1489 1484 1476 1473 1472 1471 1470 1470 1470 1472 1473 1471 1469 1468 1470 1472 1474 1480 1484 1485 1490 1490 1484 1478 1477 1480 1477 1472 1468 1458 1454 1458 1458 1455 1454 1454 1454 1452 1452 1451 1450 1450 1450 1450
1508 1507 1506 1505 1504 1503 1502 1501 1500 1499 1498 1496 1496 1496 1500 1510 1516 1514 1512 1511 1508 1506 1505 1506 1505 1503 1503 1502 1502 1500 1498 1497 1495 1494 1493 1492 1493 1494 1493 1492 1491 1492 1493 1492 1493 1492 1487 1480 1475 1473 1473 1471 1470 1471 1472 1472 1471 1472 1475 1474 1473 1477 1480 1483 1486 1485 1482 1480 1479 1479 1475 1470 1464 1457 1456 1457 1457 1456 1454 1454 1456 1454 1453 1453 1452 1451 1450 1450
1508 1507 1506 1505 1504 1503 1502 1501 1500 1499 1498 1496 1497 1501 1507 1515 1517 1514 1512 1509 1507 1507 1506 1506 1507 1505 1504 1503 1502 1501 1500 1499 1496 1496 1495 1494 1496 1497 1495 1494 1492 1493 1494 1494 1495 1494 1492 1486 1477 1474 1474 1472 1471 1470 1469 1470 1472 1476 1476 1474 1474 1475 1475 1483 1489 1487 1486 1485 1482 1479 1475 1470 1462 1454 1454 1457 1457 1457 1455 1453 1455 1455 1454 1454 1453 1452 1451 1451
1507 1506 1506 1505 1504 1503 1502 1501 1500 1499 1498 1497 1500 1508 1512 1513 1513 1512 1510 1507 1507 1508 1507 1507 1508 1508 1507 1505 1503 1501 1501 1500 1498 1498 1497 1497 1498 1497 1496 1495 1494 1494 1494 1496 1497 1494 1493 1486 1476 1474 1473 1470 1471 1470 1469 1471 1473 1475 1476 1474 1476 1476 1475 1482 1492 1495 1494 1488 1485 1484 1476 1469 1465 1455 1450 1455 1456 1457 1458 1456 1455 1455 1455 1455 1454 1453 1453 1452
1506 1506 1506 1505 1504 1503 1502 1501 1500 1499 1498 1498 1503 1510 1511 1509 1508 1508 1507 1506 1507 1507 1508 1510 1510 1510 1510 1509 1505 1503 1502 1501 1500 1500 1499 1499 1499 1496 1496 1495 1494 1494 1494 1496 1497 1495 1495 1489 1478 1477 1475 1470 1470 1470 1469 1470 1471 1473 1476 1475 1476 1477 1477 1479 1484 1491 1494 1490 1487 1488 1482 1474 1472 1463 1451 1451 1454 1456 1460 1459 1458 1457 1456 1456 1456 1455 1454 1453
1505 1505 1505 1504 1504 1503 1502 1501 1500 1500 1499 1500 1506 1510 1510 1508 1506 1506 1506 1506 1507 1507 1509 1512 1511 1511 1512 1511 1507 1504 1503 1503 1503 1503 1502 1502 1500 1496 1496 1496 1494 1493 1493 1494 1494 1493 1496 1492 1480 1477 1477 1472 1469 1470 1471 1471 1471 1472 1475 1474 1475 1478 1479 1480 1483 1486 1491 1494 1490 1490 1490 1482 1475 1467 1456 1453 1455 1456 1457 1459 1460 1460 1459 1458 1458 1458 1457 1455
1504 1504 1504 1504 1503 1503 1502 1501 1501 1500 1500 1504 1509 1510 1509 1507 1505 1506 1506 1505 1506 1507 1509 1512 1512 1512 1512 1511 1508 1506 1506 1505 1506 1506 1504 1503 1501 1497 1495 1496 1495 1493 1492 1493 1493 1492 1495 1494 1484 1478 1478 1475 1471 1472 1477 1477 1473 1472 1473 1475 1476 1478 1479 1481 1484 1485 1486 1493 1493 1490 1488 1478 1469 1466 1460 1456 1456 1456 1456 1458 1459 1462 1462 1461 1460 1459 1459 1458
1504 1504 1504 1504 1503 1503 1502 1501 1501 1501 1502 1507 1510 1509 1508 1507 1505 1505 1505 1505 1506 1507 1508 1511 1512 1512 1510 1509 1508 1507 1507 1507 1506 1507 1505 1503 1502 1498 1495 1495 1495 1493 1491 1491 1492 1491 1493 1495 1489 1480 1477 1477 1475 1476 1479 1480 1478 1477 1477 1479 1479 1480 1482 1482 1485 1488 1486 1488 1494 1495 1487 1472 1465 1464 1459 1456 1457 1457 1458 1459 1459 1462 1463 1462 1461 1460 1459 1459
1503 1504 1504 1504 1503 1503 1502 1501 1502 1504 1506 1508 1509 1508 1507 1506 1505 1505 1505 1505 1505 1506 1507 1509 1510 1510 1509 1508 1508 1507 1507 1507 1506 1506 1505 1503 1503 1501 1497 1494 1494 1494 1492 1492 1491 1491 1493 1495 1494 1488 1482 1480 1479 1477 1478 1478 1479 1480 1481 1484 1484 1483 1483 1483 1486 1490 1489 1488 1493 1497 1489 1471 1462 1460 1457 1458 1460 1459 1460 1460 1459 1459 1460 1461 1460 1459 1458 1457
1503 1504 1505 1504 1503 1503 1502 1503 1506 1507 1507 1507 1508 1507 1506 1506 1505 1505 1505 1505 1505 1505 1506 1507 1508 1509 1508 1508 1507 1506 1507 1506 1505 1505 1504 1503 1502 1500 1496 1494 1494 1494 1493 1494 1493 1491 1492 1495 1496 1492 1487 1483 1480 1477 1477 1478 1478 1480 1482 1485 1486 1486 1486 1488 1490 1492 1493 1492 1492 1497 1492 1472 1460 1459 1459 1459 1460 1460 1460 1459 1457 1456 1455 1457 1458 1457 1457 1455
1504 1505 1505 1504 1503 1503 1502 1505 1508 1508 1507 1507 1506 1506 1506 1506 1506 1505 1505 1505 1505 1505 1506 1506 1507 1507 1507 1506 1506 1507 1507 1505 1504 1504 1503 1502 1500 1497 1495 1494 1493 1493 1493 1494 1493 1491 1492 1495 1496 1493 1487 1483 1479 1477 1478 1479 1479 1482 1486 1487 1488 1488 1488 1490 1492 1492 1495 1494 1491 1494 1490 1471 1459 1460 1459 1459 1459 1458 1458 1458 1457 1455 1452 1452 1453 1454 1454 1453
1505 1505 1505 1504 1503 1503 1504 1507 1509 1508 1508 1507 1506 1506 1506 1506 1506 1506 1506 1505 1505 1505 1506 1506 1506 1506 1506 1506 1506 1506 1506 1505 1504 1503 1502 1502 1499 1495 1494 1494 1493 1493 1493 1493 1493 1491 1493 1495 1497 1496 1492 1485 1482 1482 1480 1481 1484 1488 1490 1490 1490 1490 1490 1490 1492 1493 1495 1492 1490 1492 1485 1467 1460 1460 1457 1458 1459 1457 1457 1458 1458 1456 1452 1449 1449 1449 1450 1449
1505 1505 1505 1505 1504 1503 1506 1509 1509 1509 1510 1509 1507 1508 1508 1506 1506 1506 1506 1505 1505 1505 1506 1505 1505 1505 1506 1506 1505 1505 1505 1505 1504 1502 1502 1502 1499 1494 1493 1493 1493 1493 1492 1492 1491 1491 1493 1496 1496 1498 1498 1494 1490 1489 1488 1488 1491 1493 1493 1492 1492 1492 1492 1492 1493 1496 1496 1493 1492 1490 1479 1463 1458 1461 1460 1460 1460 1458 1456 1456 1457 1456 1453 1449 1447 1446 1445 1444
1506 1506 1507 1507 1506 1505 1507 1509 1509 1509 1509 1509 1509 1509 1510 1508 1507 1506 1505 1505 1505 1505 1505 1505 1504 1505 1506 1506 1505 1505 1505 1505 1505 1504 1503 1502 1499 1495 1493 1493 1493 1493 1492 1492 1491 1491 1493 1496 1495 1495 1497 1496 1493 1491 1493 1495 1494 1493 1493 1494 1494 1494 1494 1494 1496 1497 1496 1495 1492 1486 1479 1468 1460 1462 1464 1461 1461 1460 1456 1454 1454 1453 1451 1449 1446 1443 1441 1439
1508 1509 1510 1509 1508 1507 1508 1509 1509 1509 1509 1509 1509 1510 1511 1510 1509 1507 1506 1505 1505 1505 1504 1504 1505 1505 1506 1506 1506 1506 1506 1505 1505 1504 1503 1501 1499 1495 1494 1493 1493 1493 1492 1492 1491 1491 1494 1495 1494 1494 1494 1493 1491 1491 1492 1495 1495 1493 1494 1495 1495 1495 1496 1496 1497 1495 1495 1497 1490 1481 1481 1477 1464 1461 1464 1462 1461 1460 1456 1453 1451 1450 1449 1447 1443 1440 1437 1434
1510 1511 1512 1512 1511 1510 1510 1510 1510 1510 1509 1509 1510 1510 1511 1511 1511 1509 1507 1505 1505 1505 1505 1505 1505 1505 1506 1507 1507 1506 1505 1505 1504 1502 1501 1501 1499 1497 1495 1494 1494 1493 1493 1492 1491 1492 1495 1495 1493 1494 1493 1491 1491 1491 1490 1493 1496 1496 1496 1496 1495 1496 1496 1496 1496 1494 1494 1496 1490 1481 1482 1481 1470 1464 1464 1461 1460 1458 1455 1453 1451 1448 1446 1443 1440 1437 1433 1429
1511 1512 1512 1512 1512 1512 1511 1510 1510 1510 1509 1509 1509 1511 1512 1512 1512 1511 1509 1507 1506 1505 1506 1506 1505 1505 1506 1507 1506 1506 1505 1505 1505 1502 1500 1500 1500 1499 1498 1496 1495 1493 1493 1494 1493 1493 1495 1495 1493 1494 1493 1491 1489 1489 1489 1492 1496 1497 1497 1497 1496 1496 1497 1496 1495 1494 1493 1493 1489 1485 1485 1480 1470 1465 1463 1460 1459 1457 1454 1452 1448 1445 1442 1439 1436 1433 1428 1424
1512 1512 1512 1512 1511 1511 1511 1510 1510 1509 1509 1509 1510 1511 1512 1512 1511 1511 1510 1508 1507 1506 1507 1507 1505 1504 1505 1506 1505 1505 1504 1504 1505 1503 1500 1500 1501 1500 1499 1499 1497 1495 1494 1495 1495 1495 1496 1496 1495 1495 1495 1492 1488 1487 1489 1492 1495 1497 1497 1498 1497 1496 1496 1495 1494 1493 1492 1491 1487 1487 1485 1476 1465 1463 1464 1461 1458 1454 1451 1448 1444 1440 1437 1433 1429 1426 1422 1419
1513 1513 1512 1512 1511 1511 1511 1511 1511 1510 1510 1511 1511 1511 1512 1512 1512 1511 1509 1507 1507 1506 1506 1506 1505 1504 1504 1504 1504 1503 1502 1501 1502 1500 1499 1499 1500 1498 1498 1498 1498 1497 1497 1497 1497 1497 1497 1498 1497 1496 1497 1494 1489 1487 1490 1493 1493 1494 1496 1497 1498 1497 1496 1494 1493 1491 1491 1489 1486 1485 1482 1472 1463 1462 1462 1458 1456 1453 1448 1445 1441 1436 1432 1428 1423 1418 1413 1410
1513 1513 1512 1512 1511 1512 1512 1511 1511 1511 1510 1512 1512 1512 1512 1511 1511 1511 1509 1506 1505 1506 1505 1505 1504 1504 1503 1502 1501 1501 1500 1499 1497 1497 1496 1497 1498 1497 1498 1498 1498 1498 1498 1498 1500 1500 1500 1500 1498 1498 1499 1495 1490 1489 1491 1491 1493 1496 1498 1498 1498 1497 1495 1492 1490 1487 1487 1487 1487 1483 1477 1469 1464 1463 1460 1453 1450 1447 1443 1441 1439 1432 1427 1423 1418 1412 1407 1402